TimeEST,TemperatureF,Dew PointF,Humidity,Sea Level PressureIn,VisibilityMPH,Wind Direction,Wind SpeedMPH,Gust SpeedMPH,PrecipitationIn,Events,Conditions,WindDirDegrees,DateUTC
12:15 AM,30.0,27.7,91,30.41,10.0,South,4.6,-,N/A,,Clear,190,2013-01-19 05:15:00
12:35 AM,31.5,28.4,88,30.41,10.0,South,3.5,-,N/A,,Clear,180,2013-01-19 05:35:00
12:55 AM,31.5,28.4,88,30.40,10.0,Calm,Calm,-,N/A,,Clear,0,2013-01-19 05:55:00
1:15 AM,31.5,28.4,88,30.40,10.0,South,4.6,-,N/A,,Clear,190,2013-01-19 06:15:00
1:35 AM,32.0,28.8,88,30.40,10.0,SW,3.5,-,N/A,,Clear,220,2013-01-19 06:35:00
1:55 AM,32.0,29.1,89,30.39,10.0,South,6.9,-,N/A,,Clear,190,2013-01-19 06:55:00
2:15 AM,32.2,29.3,89,30.40,10.0,South,6.9,-,N/A,,Clear,190,2013-01-19 07:15:00
2:35 AM,32.2,29.3,89,30.39,10.0,SSW,6.9,-,N/A,,Clear,200,2013-01-19 07:35:00
2:55 AM,32.0,29.3,90,30.39,10.0,SSW,6.9,-,N/A,,Clear,210,2013-01-19 07:55:00
3:15 AM,32.0,29.3,90,30.39,10.0,South,8.1,-,N/A,,Clear,190,2013-01-19 08:15:00
3:35 AM,32.5,29.3,88,30.38,10.0,South,8.1,-,N/A,,Clear,190,2013-01-19 08:35:00
3:55 AM,32.5,29.3,88,30.37,10.0,SSW,10.4,-,N/A,,Clear,200,2013-01-19 08:55:00
4:15 AM,32.9,29.3,87,30.37,10.0,SSW,10.4,-,N/A,,Clear,200,2013-01-19 09:15:00
4:35 AM,32.9,29.3,87,30.36,10.0,SSW,6.9,-,N/A,,Clear,200,2013-01-19 09:35:00
4:55 AM,33.1,29.3,86,30.36,10.0,SSW,9.2,-,N/A,,Clear,200,2013-01-19 09:55:00
5:15 AM,33.1,29.1,85,30.35,10.0,SSW,8.1,-,N/A,,Clear,200,2013-01-19 10:15:00
5:35 AM,33.1,29.1,85,30.35,10.0,SSW,9.2,-,N/A,,Clear,210,2013-01-19 10:35:00
5:55 AM,33.8,29.3,84,30.34,10.0,SSW,11.5,-,N/A,,Clear,200,2013-01-19 10:55:00
6:15 AM,33.8,29.3,84,30.35,10.0,SSW,8.1,-,N/A,,Clear,200,2013-01-19 11:15:00
6:35 AM,33.8,29.3,84,30.34,10.0,SSW,11.5,-,N/A,,Clear,210,2013-01-19 11:35:00
7:35 AM,34.7,29.7,82,30.32,10.0,SSW,9.2,17.3,N/A,,Clear,210,2013-01-19 12:35:00
7:55 AM,35.6,29.8,80,30.33,10.0,SSW,10.4,-,N/A,,Clear,210,2013-01-19 12:55:00
8:15 AM,36.5,30.2,78,30.33,10.0,SSW,13.8,21.9,N/A,,Clear,200,2013-01-19 13:15:00
8:55 AM,38.5,31.1,75,30.33,10.0,SSW,11.5,19.6,N/A,,Clear,200,2013-01-19 13:55:00
9:15 AM,39.6,31.3,72,30.33,10.0,SSW,13.8,17.3,N/A,,Clear,210,2013-01-19 14:15:00
9:35 AM,40.5,31.6,71,30.33,10.0,SSW,11.5,18.4,N/A,,Clear,210,2013-01-19 14:35:00
9:38 AM,41.0,30.2,65,30.33,10.0,SW,15.0,19.6,N/A,,Clear,220,2013-01-19 14:38:00
10:35 AM,44.4,32.4,63,30.32,10.0,SSW,9.2,19.6,N/A,,Clear,210,2013-01-19 15:35:00
10:55 AM,46.4,33.6,61,30.31,10.0,SW,11.5,-,N/A,,Clear,220,2013-01-19 15:55:00
11:15 AM,48.0,34.3,59,30.29,10.0,SSW,10.4,-,N/A,,Clear,200,2013-01-19 16:15:00
11:35 AM,49.1,34.2,56,30.27,10.0,SSW,11.5,16.1,N/A,,Clear,200,2013-01-19 16:35:00
12:15 PM,52.9,35.8,52,30.23,10.0,South,6.9,-,N/A,,Clear,180,2013-01-19 17:15:00
12:35 PM,53.4,35.2,50,30.21,10.0,SSW,10.4,-,N/A,,Clear,200,2013-01-19 17:35:00
12:55 PM,54.1,35.8,50,30.20,10.0,SSW,13.8,-,N/A,,Clear,200,2013-01-19 17:55:00
1:15 PM,54.5,35.1,48,30.19,10.0,SW,12.7,19.6,N/A,,Clear,220,2013-01-19 18:15:00
1:35 PM,55.6,34.9,46,30.18,10.0,South,13.8,18.4,N/A,,Clear,190,2013-01-19 18:35:00
1:55 PM,56.5,35.2,45,30.16,10.0,SSW,12.7,-,N/A,,Clear,210,2013-01-19 18:55:00
2:15 PM,56.3,35.4,46,30.15,10.0,South,12.7,19.6,N/A,,Clear,190,2013-01-19 19:15:00
2:35 PM,56.5,36.3,47,30.14,10.0,South,11.5,17.3,N/A,,Clear,190,2013-01-19 19:35:00
2:55 PM,56.3,34.7,44,30.13,10.0,South,11.5,18.4,N/A,,Clear,180,2013-01-19 19:55:00
3:15 PM,56.3,35.8,46,30.13,10.0,SSW,8.1,-,N/A,,Clear,200,2013-01-19 20:15:00
3:35 PM,55.9,35.6,46,30.12,10.0,South,9.2,-,N/A,,Clear,190,2013-01-19 20:35:00
3:55 PM,55.4,35.8,48,30.11,10.0,SSW,9.2,-,N/A,,Clear,200,2013-01-19 20:55:00
4:15 PM,54.9,34.9,47,30.10,10.0,SSW,12.7,-,N/A,,Clear,200,2013-01-19 21:15:00
4:35 PM,53.6,34.9,49,30.10,10.0,South,6.9,-,N/A,,Clear,190,2013-01-19 21:35:00
4:55 PM,52.2,34.5,51,30.10,10.0,SSW,9.2,-,N/A,,Clear,200,2013-01-19 21:55:00
5:15 PM,50.9,34.3,53,30.09,10.0,South,8.1,-,N/A,,Clear,190,2013-01-19 22:15:00
5:35 PM,49.6,34.3,56,30.09,10.0,South,8.1,-,N/A,,Clear,190,2013-01-19 22:35:00
5:55 PM,49.5,34.5,56,30.09,10.0,South,9.2,-,N/A,,Clear,190,2013-01-19 22:55:00
6:15 PM,48.7,34.3,58,30.09,10.0,South,10.4,16.1,N/A,,Clear,190,2013-01-19 23:15:00
6:35 PM,48.2,34.7,60,30.09,10.0,SSW,10.4,-,N/A,,Clear,200,2013-01-19 23:35:00
6:55 PM,47.7,34.7,61,30.09,10.0,SSW,10.4,16.1,N/A,,Clear,200,2013-01-19 23:55:00
7:15 PM,47.5,34.2,60,30.08,10.0,SSW,11.5,17.3,N/A,,Clear,200,2013-01-20 00:15:00
7:35 PM,46.9,34.0,61,30.08,10.0,SSW,10.4,17.3,N/A,,Clear,200,2013-01-20 00:35:00
7:55 PM,46.8,34.0,61,30.08,10.0,SSW,11.5,17.3,N/A,,Clear,200,2013-01-20 00:55:00
8:15 PM,46.4,34.0,62,30.07,10.0,SSW,12.7,19.6,N/A,,Clear,200,2013-01-20 01:15:00
8:35 PM,46.2,34.0,62,30.07,10.0,SSW,10.4,16.1,N/A,,Clear,200,2013-01-20 01:35:00
8:55 PM,45.9,33.8,63,30.07,10.0,SSW,12.7,18.4,N/A,,Clear,200,2013-01-20 01:55:00
9:15 PM,45.7,33.4,62,30.06,10.0,SSW,10.4,17.3,N/A,,Clear,200,2013-01-20 02:15:00
9:35 PM,45.5,33.3,62,30.05,10.0,SSW,10.4,18.4,N/A,,Clear,200,2013-01-20 02:35:00
9:55 PM,45.7,33.3,62,30.05,10.0,SSW,10.4,18.4,N/A,,Clear,200,2013-01-20 02:55:00
10:15 PM,45.0,33.3,64,30.05,10.0,South,8.1,-,N/A,,Clear,190,2013-01-20 03:15:00
10:35 PM,44.8,33.3,64,30.04,10.0,South,10.4,19.6,N/A,,Clear,190,2013-01-20 03:35:00
10:55 PM,45.0,33.3,64,30.03,10.0,SSW,11.5,17.3,N/A,,Clear,200,2013-01-20 03:55:00
11:15 PM,44.6,33.3,64,30.01,10.0,SSW,8.1,-,N/A,,Clear,210,2013-01-20 04:15:00
11:35 PM,44.8,33.3,64,30.00,10.0,SSW,9.2,-,N/A,,Clear,200,2013-01-20 04:35:00
11:55 PM,44.6,33.3,64,29.98,10.0,SSW,9.2,17.3,N/A,,Clear,200,2013-01-20 04:55:00